Location: Burzi?i
(45.0869°N, 16.0577°E)
Time: 04:12:58
(UTC+00:00)

Cosmos 1400 Rocket - Pass Details

Date: 29 October 2020
Orbit: 521 x 568 km, 81.2° (Epoch: 01 December)

Event Time Altitude Azimuth Distance (km) Brightness Sun altitude
Rises 17:06:06 0° 200° (SSW) 2,752 6.7 -14.4°
Reaches altitude 10° 17:08:19 10° 204° (SSW) 1,856 5.9 -14.8°
Maximum altitude 17:12:21 55° 283° (WNW) 677 3.6 -15.5°
Drops below altitude 10° 17:16:22 10° 2° (N) 1,851 5.4 -16.2°
Sets 17:18:35 0° 7° (N) 2,743 6.3 -16.6°
